Location: Newark
(25.4800°N, 85.7200°E)
Time: 15:31:37
(UTC+00:00)

Transit 4A - Pass Details

Date: 25 August 2019
Orbit: 865 x 980 km, 66.8° (Epoch: 18 September)

Event Time Altitude Azimuth Distance (km) Brightness Sun altitude
Rises 20:28:50 0° 349° (NNW) 3,589 11.3 -42.0°
Reaches altitude 10° 20:31:42 10° 359° (N) 2,624 10.6 -41.6°
Enters shadow 20:34:20 22° 18° (NNE) 1,866 9.8 -41.2°
